星链-5637 (STARLINK-5637 )

导读 | 豆包AI

STARLINK-5637是美国SpaceX公司星链(Starlink)低轨卫星互联网星座的组成卫星,于2023年1月31日发射入轨。星链计划旨在提供全球覆盖的高速卫星互联网服务,可覆盖偏远地区,并已拓展至应急通信、航空航运、手机直连等多元应用场景。该卫星设计服役超5年,运行于近地轨道,服务全球超百万用户。

基本信息
目录编号:
55432
目录名称:
STARLINK-5637
国际标识:
2023-014AT
轨道中心:
EARTH
卫星名称:
星链-5637
卫星全名:
星链-5637 (STARLINK-5637 )
卫星状态:
在轨 (已飞行1139 天)
发射日期:
2023-01-31 UTC
国别 :
美国 (US)
星等 :
--
轨道信息
数据来源 国际轨道数据
星历时间: 2026-03-15T14:13:20+0800
10小时前
查看轨道信息
半长轴: 6950.187km
偏心率: 0.0003209
轨道倾角: 69.999°
近地点辐角 269.128°
升交点赤经 90.389°
平近点角 90.951°
近地点: 569.819km
远地点: 574.281km
周期: 96.107分钟
每日圈数: 14.983321
详细信息
固有亮度:
5
最大亮度:
2.5
卫星平台:
Starlink v1.5
覆盖范围:
全球
运营商:
太空探索技术公司
运营商所在国:
美国
制造商(研发单位):
太空探索技术公司
制造商所在国:
美国
使用方式:
暂无
卫星简介
星链(Starlink)计划是由太空探索技术公司(SpaceX)提出的一个巨型低轨卫星互联网星座项目,计划在2019年至2024年间在太空搭建由约1.2万颗卫星组成的“星链”网络,其中1584颗将部署在地球上空550千米处的近地轨道,并从2020年开始工作。该卫星仍在工作。
2D轨道图
3D轨道图
轨道高度分析图
轨道倾角分析图
轨道综合分析图
查看轨道综合分析图